This demonstration page uses our WeatherBlox Daily Observations layout. Learn more.

Hourly Observations for January 1, 2019

Temp ( °F °C ) Dew Point ( °F °C ) Humidity (%) Winds ( mph kmh ) Pressure ( in mb ) Visibility ( mi km ) Precip ( " mm )
12:15 am 00:15 Cloudy with Mist and Fog 45 7 45 7 100 100 S 5 7 29.83 1010 2.5 4.02336 0 0
12:35 am 00:35 Cloudy with Mist and Fog 45 7 45 7 100 100 S 9 15 29.8 1009 1.75 2.816352 0 0
12:55 am 00:55 Cloudy with Mist and Fog 46 8 46 8 100 100 SW 8 13 29.77 1008 3 4.828032 0 0
1:15 am 01:15 Cloudy with Mist and Fog 45 7 45 7 100 100 SSW 5 7 29.8 1009 2 3.218688 0 0
1:35 am 01:35 Cloudy with Mist and Fog 48 9 48 9 100 100 SSW 8 13 29.77 1008 5 8.04672 0 0
1:55 am 01:55 Cloudy 50 10 50 10 100 100 SSW 10 17 29.77 1008 7 11.265408 0 0
2:15 am 02:15 Partly Cloudy 50 10 50 10 100 100 SSW 10 17 29.74 1007 7 11.265408 0 0
2:35 am 02:35 Partly Cloudy 52 11 52 11 100 100 SSW 9 15 29.74 1007 10 16.09344 0 0
2:55 am 02:55 Clear 52 11 52 11 100 100 SSW 8 13 29.74 1007 10 16.09344 0 0
3:15 am 03:15 Clear 50 10 50 10 100 100 WSW 6 9 29.74 1007 7 11.265408 0 0
3:35 am 03:35 Clear 52 11 52 11 100 100 SW 3 6 29.74 1007 7 11.265408 0 0
3:55 am 03:55 Clear with Mist and Fog 50 10 50 10 100 100 WSW 3 6 29.74 1007 5 8.04672 0 0
4:15 am 04:15 Mostly Cloudy with Fog 50 10 50 10 100 100 Calm 29.74 1007 0.5 0.804672 0 0
4:35 am 04:35 Partly Cloudy with Mist and Fog 50 10 50 10 100 100 Calm 29.74 1007 2.5 4.02336 0 0
4:55 am 04:55 Mostly Cloudy with Mist and Fog 50 10 50 10 100 100 Calm 29.74 1007 1.75 2.816352 0 0
5:15 am 05:15 Clear with Mist and Fog 50 10 50 10 100 100 NW 5 7 29.77 1008 5 8.04672 0 0
5:35 am 05:35 Clear 50 10 50 10 100 100 W 6 9 29.77 1008 7 11.265408 0 0
5:55 am 05:55 Clear 52 11 52 11 100 100 W 7 11 29.77 1008 10 16.09344 0 0
6:15 am 06:15 Clear 52 11 52 11 100 100 WSW 7 11 29.8 1009 10 16.09344 0 0
6:35 am 06:35 Clear 50 10 50 10 100 100 SSW 8 13 29.8 1009 10 16.09344 0 0
6:55 am 06:55 Clear 52 11 52 11 100 100 SW 5 7 29.83 1010 10 16.09344 0 0
7:15 am 07:15 Clear 52 11 52 11 100 100 W 9 15 29.83 1010 10 16.09344 0 0
7:35 am 07:35 Sunny 54 12 50 10 88 88 W 8 13 29.83 1010 10 16.09344 0 0
7:55 am 07:55 Sunny 55 13 46 8 72 72 WNW 8 13 29.85 1011 10 16.09344 0 0
8:15 am 08:15 Sunny 55 13 46 8 72 72 NW 6 9 29.88 1012 10 16.09344 0 0
8:35 am 08:35 Sunny 57 14 46 8 67 67 WSW 5 7 29.88 1012 10 16.09344 0 0
8:55 am 08:55 Sunny 59 15 45 7 59 59 WNW 17 28 29.91 1013 10 16.09344 0 0
9:15 am 09:15 Sunny 59 15 45 7 59 59 WNW 12 19 29.94 1014 10 16.09344 0 0
9:35 am 09:35 Sunny 59 15 45 7 59 59 WNW 12 19 29.94 1014 10 16.09344 0 0
9:55 am 09:55 Sunny 59 15 46 8 63 63 NW 14 22 29.94 1014 10 16.09344 0 0
10:15 am 10:15 Sunny 57 14 45 7 63 63 NW 18 30 29.94 1014 10 16.09344 0 0
10:35 am 10:35 Sunny 55 13 43 6 63 63 WNW 23 37 29.97 1015 10 16.09344 0 0
10:55 am 10:55 Sunny 55 13 43 6 63 63 NNW 24 39 29.97 1015 10 16.09344 0 0
11:15 am 11:15 Sunny 55 13 43 6 63 63 NNW 25 41 29.97 1015 10 16.09344 0 0
11:35 am 11:35 Sunny 55 13 43 6 63 63 NNW 21 33 29.97 1015 10 16.09344 0 0
11:55 am 11:55 Mostly Cloudy 55 13 43 6 63 63 NW 22 35 29.97 1015 10 16.09344 0 0
12:15 pm 12:15 Cloudy 55 13 43 6 63 63 NW 25 41 30 1016 10 16.09344 0 0
12:35 pm 12:35 Cloudy 55 13 43 6 63 63 NW 21 33 30 1016 10 16.09344 0 0
12:55 pm 12:55 Cloudy 55 13 45 7 67 67 NW 17 28 30 1016 10 16.09344 0 0
1:15 pm 13:15 Cloudy 54 12 43 6 67 67 NW 14 22 30.03 1017 10 16.09344 0 0
1:35 pm 13:35 Cloudy 54 12 43 6 67 67 NNW 16 26 30.03 1017 10 16.09344 0 0
1:55 pm 13:55 Cloudy 54 12 43 6 67 67 NNW 12 19 30.03 1017 10 16.09344 0 0
2:15 pm 14:15 Cloudy 54 12 43 6 67 67 NNW 15 24 30.06 1018 10 16.09344 0 0
2:35 pm 14:35 Cloudy 52 11 43 6 72 72 NNW 15 24 30.06 1018 10 16.09344 0 0
2:55 pm 14:55 Cloudy 52 11 41 5 67 67 NNW 18 30 30.09 1019 10 16.09344 0 0
3:15 pm 15:15 Cloudy 52 11 41 5 67 67 N 13 20 30.09 1019 10 16.09344 0 0
3:35 pm 15:35 Cloudy 52 11 41 5 67 67 NNW 13 20 30.09 1019 10 16.09344 0 0
3:55 pm 15:55 Cloudy 52 11 41 5 67 67 N 7 11 30.12 1020 10 16.09344 0 0
4:15 pm 16:15 Cloudy 52 11 41 5 67 67 NNW 12 19 30.12 1020 10 16.09344 0 0
4:35 pm 16:35 Cloudy 50 10 41 5 71 71 NNW 13 20 30.15 1021 10 16.09344 0 0
4:55 pm 16:55 Cloudy 50 10 41 5 71 71 N 9 15 30.15 1021 10 16.09344 0 0
5:15 pm 17:15 Cloudy 50 10 41 5 71 71 NNW 10 17 30.18 1022 10 16.09344 0 0
5:35 pm 17:35 Mostly Cloudy 50 10 41 5 71 71 NNW 16 26 30.18 1022 10 16.09344 0 0
5:55 pm 17:55 Partly Cloudy 48 9 39 4 71 71 NNW 13 20 30.18 1022 10 16.09344 0 0
6:15 pm 18:15 Clear 48 9 39 4 71 71 N 3 6 30.21 1023 10 16.09344 0 0
6:35 pm 18:35 Mostly Cloudy 48 9 37 3 66 66 Calm 30.21 1023 10 16.09344 0 0
6:55 pm 18:55 Cloudy 46 8 39 4 76 76 Calm 30.24 1024 10 16.09344 0 0
7:15 pm 19:15 Cloudy 46 8 39 4 76 76 NNE 3 6 30.24 1024 10 16.09344 0 0
7:35 pm 19:35 Cloudy 46 8 37 3 71 71 NE 3 6 30.24 1024 10 16.09344 0 0
7:55 pm 19:55 Cloudy 46 8 37 3 71 71 NNE 5 7 30.24 1024 10 16.09344 0 0
8:15 pm 20:15 Cloudy 46 8 37 3 71 71 E 5 7 30.24 1024 10 16.09344 0 0
8:35 pm 20:35 Cloudy 46 8 37 3 71 71 Calm 30.24 1024 10 16.09344 0 0
8:55 pm 20:55 Cloudy 46 8 37 3 71 71 N 5 7 30.27 1025 10 16.09344 0 0
9:15 pm 21:15 Cloudy 45 7 37 3 76 76 N 5 7 30.24 1024 10 16.09344 0 0
9:35 pm 21:35 Cloudy 46 8 37 3 71 71 Calm 30.24 1024 10 16.09344 0 0
9:55 pm 21:55 Cloudy 46 8 37 3 71 71 Calm 30.24 1024 10 16.09344 0 0
10:15 pm 22:15 Cloudy 45 7 37 3 76 76 NNW 5 7 30.24 1024 10 16.09344 0 0
10:35 pm 22:35 Cloudy 45 7 37 3 76 76 NNW 5 7 30.24 1024 10 16.09344 0 0
10:55 pm 22:55 Cloudy 45 7 37 3 76 76 Calm 30.24 1024 10 16.09344 0 0
11:15 pm 23:15 Cloudy 45 7 37 3 76 76 Calm 30.24 1024 10 16.09344 0 0
11:35 pm 23:35 Cloudy 45 7 37 3 76 76 Calm 30.24 1024 10 16.09344 0 0
11:55 pm 23:55 Cloudy 45 7 37 3 76 76 Calm 30.24 1024 10 16.09344 0 0

Powered by AerisWeather